IRIDIUM 106 1 41917U 17003A 26037.27951609 .00000071 00000+0 18441-4 0 9999 2 41917 86.4024 143.2742 0001823 89.1626 270.9779 14.34218114474440 IRIDIUM 103 1 41918U 17003B 26037.12730454 .00000410 00000+0 13917-3 0 9996 2 41918 86.4020 143.2378 0002509 93.7675 266.3808 14.34218151474442 IRIDIUM 109 1 41919U 17003C 26037.27317375 .00000390 00000+0 13206-3 0 9994 2 41919 86.4024 143.2344 0002145 95.7139 264.4301 14.34219620474431 IRIDIUM 102 1 41920U 17003D 26037.24145838 .00000590 00000+0 20354-3 0 9990 2 41920 86.4022 143.1742 0002146 97.4798 262.6642 14.34216775474518 IRIDIUM 105 1 41921U 17003E 26037.21115643 .00000373 00000+0 12556-3 0 9993 2 41921 86.3969 111.6628 0002218 98.0816 262.0631 14.34402612476363 IRIDIUM 104 1 41922U 17003F 26037.25414605 .00000351 00000+0 11814-3 0 9990 2 41922 86.4017 143.2089 0002490 100.2444 259.9033 14.34219782474505 IRIDIUM 114 1 41923U 17003G 26037.26048112 .00000432 00000+0 14715-3 0 9991 2 41923 86.4021 143.1902 0002351 97.1181 263.0282 14.34222286474484 IRIDIUM 108 1 41924U 17003H 26037.14924018 .00000146 00000+0 45114-4 0 9997 2 41924 86.3965 111.5761 0002073 100.7120 259.4309 14.34218943476327 IRIDIUM 112 1 41925U 17003J 26037.24780362 .00000415 00000+0 14119-3 0 9990 2 41925 86.4017 143.0437 0002236 99.6677 260.4771 14.34218688474500 IRIDIUM 111 1 41926U 17003K 26037.30488816 .00000210 00000+0 67755-4 0 9995 2 41926 86.4017 143.0874 0002239 97.0417 263.1033 14.34218743474494 IRIDIUM 113 1 42803U 17039A 26037.49415769 .00000021 00000+0 40702-6 0 9991 2 42803 86.3983 16.7793 0002341 89.0060 271.1404 14.34217706452456 IRIDIUM 123 1 42804U 17039B 26037.46586703 .00000063 00000+0 15350-4 0 9991 2 42804 86.3929 48.2657 0002337 84.8945 275.2517 14.34217878451219 IRIDIUM 120 1 42805U 17039C 26037.27850793 .00000195 00000+0 62656-4 0 9991 2 42805 86.3968 16.6686 0001932 84.9776 275.1640 14.34218825452419 IRIDIUM 115 1 42806U 17039D 26036.94463767 .00000555 00000+0 15887-3 0 9999 2 42806 86.4506 16.9190 0002267 76.7272 283.4182 14.43280938455335 IRIDIUM 118 1 42807U 17039E 26037.49758034 .00000020 00000+0 -68508-7 0 9995 2 42807 86.3930 48.2510 0002353 91.5672 268.5794 14.34217325451211 IRIDIUM 117 1 42808U 17039F 26037.51660784 .00000034 00000+0 50784-5 0 9992 2 42808 86.3928 48.2019 0002292 86.9742 273.1716 14.34217524451241 IRIDIUM 126 1 42809U 17039G 26037.47220924 .00000043 00000+0 82532-5 0 9992 2 42809 86.3928 48.2695 0002388 88.9687 271.1782 14.34217490451218 IRIDIUM 124 1 42810U 17039H 26037.22509816 .00000576 00000+0 16533-3 0 9994 2 42810 86.4533 345.1132 0002283 81.3045 278.8414 14.43280114456222 IRIDIUM 128 1 42811U 17039J 26037.04434703 .00000349 00000+0 11751-3 0 9992 2 42811 86.3921 79.9942 0002014 90.0390 270.1037 14.34217269451183 IRIDIUM 121 1 42812U 17039K 26037.42146534 .00000175 00000+0 55381-4 0 9992 2 42812 86.3930 48.3175 0002106 90.4872 269.6565 14.34217635451088 IRIDIUM 133 1 42955U 17061A 26037.07605009 .00000183 00000+0 58257-4 0 9997 2 42955 86.3921 80.0955 0002225 91.6820 268.4631 14.34218019435982 IRIDIUM 100 1 42956U 17061B 26037.06970765 .00000321 00000+0 10742-3 0 9991 2 42956 86.3921 80.0198 0002179 92.3323 267.8123 14.34217803435985 IRIDIUM 122 1 42957U 17061C 26036.61938351 .00000138 00000+0 42040-4 0 9990 2 42957 86.3920 80.2080 0002269 91.0153 269.1303 14.34217543435924 IRIDIUM 129 1 42958U 17061D 26037.06336404 .00000138 00000+0 42342-4 0 9997 2 42958 86.3921 80.0879 0002442 100.6840 259.4631 14.34218671436002 IRIDIUM 119 1 42959U 17061E 26037.52003177 .00000174 00000+0 55085-4 0 9995 2 42959 86.3923 79.8922 0002403 94.0488 266.0982 14.34217985436089 IRIDIUM 107 1 42960U 17061F 26037.12044814 .00000197 00000+0 63387-4 0 9995 2 42960 86.3923 80.0798 0002320 84.0376 276.1084 14.34217971436034 IRIDIUM 132 1 42961U 17061G 26036.98725272 .00000324 00000+0 10877-3 0 9990 2 42961 86.3920 80.1162 0002204 89.6630 270.4819 14.34217832436010 IRIDIUM 136 1 42962U 17061H 26037.50734683 .00000292 00000+0 97041-4 0 9999 2 42962 86.3922 79.9046 0002448 91.3592 268.7885 14.34217881436104 IRIDIUM 139 1 42963U 17061J 26037.51368807 .00000283 00000+0 93932-4 0 9997 2 42963 86.3922 79.9614 0002135 90.4279 269.7161 14.34217521436111 IRIDIUM 125 1 42964U 17061K 26037.50100304 .00000159 00000+0 49762-4 0 9997 2 42964 86.3926 80.0256 0002720 86.7276 273.4231 14.34217398436129 IRIDIUM 135 1 43070U 17083A 26037.33559221 .00000085 00000+0 23425-4 0 9993 2 43070 86.3975 16.6905 0002229 88.5933 271.5518 14.34218210425390 IRIDIUM 138 1 43071U 17083B 26037.36096024 .00000426 00000+0 14512-3 0 9999 2 43071 86.3992 16.3554 0002577 90.2987 269.8504 14.34220437425380 IRIDIUM 116 1 43072U 17083C 26037.39901706 .00000337 00000+0 11313-3 0 9992 2 43072 86.3973 16.6520 0001906 81.9430 278.1982 14.34217615425423 IRIDIUM 130 1 43073U 17083D 26037.29753564 .00000155 00000+0 48422-4 0 9999 2 43073 86.3985 16.9568 0002065 80.9654 279.1776 14.34218627425354 IRIDIUM 151 1 43074U 17083E 26037.27216598 .00000190 00000+0 60900-4 0 9993 2 43074 86.3977 16.7594 0002155 87.2608 272.8834 14.34217530425371 IRIDIUM 134 1 43075U 17083F 26037.44975841 .00000145 00000+0 44879-4 0 9993 2 43075 86.3978 16.6917 0002185 82.6832 277.4612 14.34217187425364 IRIDIUM 137 1 43076U 17083G 26037.39267255 .00000191 00000+0 61101-4 0 9999 2 43076 86.3983 16.8059 0001736 94.2240 265.9154 14.34217240425423 IRIDIUM 141 1 43077U 17083H 26037.38633161 .00000235 00000+0 76970-4 0 9991 2 43077 86.3978 16.6463 0002304 88.2542 271.8917 14.34219344425425 IRIDIUM 153 1 43078U 17083J 26037.19897586 .00000250 00000+0 82105-4 0 9998 2 43078 86.4013 345.2308 0002475 84.2626 275.8852 14.34217758426503 IRIDIUM 131 1 43079U 17083K 26037.30387997 .00000396 00000+0 13451-3 0 9990 2 43079 86.3981 16.8580 0002240 90.0391 270.1062 14.34215151425341 IRIDIUM 144 1 43249U 18030A 26037.20531674 .00000366 00000+0 12375-3 0 9995 2 43249 86.4008 345.1599 0002087 82.3762 277.7671 14.34217891411363 IRIDIUM 149 1 43250U 18030B 26037.21165963 .00000050 00000+0 10891-4 0 9994 2 43250 86.4003 345.1261 0002173 83.6296 276.5147 14.34217676411386 IRIDIUM 157 1 43251U 18030C 26037.23068766 -.00000023 00000+0 -15235-4 0 9999 2 43251 86.4012 345.1687 0002138 86.5208 273.6232 14.34217579411368 IRIDIUM 140 1 43252U 18030D 26037.17994685 .00000119 00000+0 35265-4 0 9990 2 43252 86.4013 345.2026 0002140 82.0339 278.1099 14.34218126411413 IRIDIUM 145 1 43253U 18030E 26037.37656672 .00000263 00000+0 86770-4 0 9991 2 43253 86.4014 345.0931 0001906 78.1205 282.0204 14.34217770411376 IRIDIUM 146 1 43254U 18030F 26037.21800205 -.00000046 00000+0 -23338-4 0 9990 2 43254 86.4006 345.1723 0001945 83.5141 276.6276 14.34217783411361 IRIDIUM 148 1 43255U 18030G 26037.18628927 -.00000039 00000+0 -20996-4 0 9995 2 43255 86.4011 345.2264 0002114 86.4669 273.6769 14.34217835411390 IRIDIUM 142 1 43256U 18030H 26037.22434351 .00000324 00000+0 10846-3 0 9994 2 43256 86.4005 345.1042 0001865 78.8365 281.3040 14.34219477411366 IRIDIUM 150 1 43257U 18030J 26037.33216407 .00000211 00000+0 68144-4 0 9997 2 43257 86.4013 345.1711 0002135 82.4748 277.6690 14.34217098411407 IRIDIUM 143 1 43258U 18030K 26037.31313950 .00000313 00000+0 10469-3 0 9996 2 43258 86.4016 345.2665 0002020 81.0993 279.0432 14.34218963411334 IRIDIUM 161 1 43478U 18047C 26037.20305006 .00000448 00000+0 12730-3 0 9991 2 43478 86.4545 143.2295 0002281 100.1679 259.9779 14.43282608406245 IRIDIUM 152 1 43479U 18047D 26037.21609152 .00000160 00000+0 49993-4 0 9995 2 43479 86.4018 143.0843 0002245 97.5625 262.5826 14.34217767403714 IRIDIUM 147 1 43480U 18047E 26037.29220186 .00000126 00000+0 37970-4 0 9995 2 43480 86.4018 143.0552 0001952 97.7206 262.4211 14.34217632403723 IRIDIUM 110 1 43481U 18047F 26037.29854502 .00000444 00000+0 15133-3 0 9990 2 43481 86.4020 143.1410 0002499 104.1663 255.9810 14.34219886403712 IRIDIUM 162 1 43482U 18047G 26037.19673402 .00000534 00000+0 15268-3 0 9997 2 43482 86.4541 143.1246 0002273 91.2653 268.8808 14.43277173406236 IRIDIUM 160 1 43569U 18061A 26037.10484309 .00000311 00000+0 10384-3 0 9993 2 43569 86.3961 111.6269 0002111 99.4512 260.6923 14.34218793394582 IRIDIUM 166 1 43570U 18061B 26037.13021355 -.00000014 00000+0 -12108-4 0 9995 2 43570 86.3965 111.5683 0001953 96.6335 263.5083 14.34217598394617 IRIDIUM 158 1 43571U 18061C 26037.16826918 .00000194 00000+0 62334-4 0 9990 2 43571 86.3968 111.5631 0002358 92.8487 267.2979 14.34218868394582 IRIDIUM 165 1 43572U 18061D 26037.19364099 .00000354 00000+0 11943-3 0 9998 2 43572 86.3968 111.5961 0002086 95.8385 264.3049 14.34219836394613 IRIDIUM 155 1 43573U 18061E 26037.22535295 -.00000003 00000+0 -81743-5 0 9991 2 43573 86.3970 111.4586 0002134 92.5326 267.6115 14.34217663394584 IRIDIUM 154 1 43574U 18061F 26037.20633316 .00000356 00000+0 12020-3 0 9992 2 43574 86.3968 111.5935 0002026 96.6839 263.4587 14.34221508394631 IRIDIUM 163 1 43575U 18061G 26037.18729754 .00000338 00000+0 11348-3 0 9994 2 43575 86.3969 111.5208 0002254 95.0074 265.1380 14.34218837394601 IRIDIUM 156 1 43576U 18061H 26037.09215830 .00000169 00000+0 53174-4 0 9996 2 43576 86.3963 111.5675 0002152 90.2986 269.8457 14.34218393394580 IRIDIUM 164 1 43577U 18061J 26037.14289786 .00000231 00000+0 75521-4 0 9994 2 43577 86.3966 111.5847 0002025 99.6006 260.5419 14.34218595394636 IRIDIUM 159 1 43578U 18061K 26037.11119592 .00000345 00000+0 11606-3 0 9998 2 43578 86.3965 111.5376 0002289 99.2633 260.8822 14.34217153394592 IRIDIUM 180 1 43922U 19002A 26036.97114043 .00000004 00000+0 -55704-5 0 9998 2 43922 86.3923 48.4342 0002250 94.3466 265.7987 14.34216013370187 IRIDIUM 176 1 43923U 19002B 26037.25320138 .00000537 00000+0 81225-4 0 9991 2 43923 86.6051 48.2782 0002459 89.5310 270.6189 14.72251410379982 IRIDIUM 168 1 43924U 19002C 26037.52295068 .00000002 00000+0 -63001-5 0 9996 2 43924 86.3927 48.2768 0002145 90.6023 269.5418 14.34217494370246 IRIDIUM 173 1 43925U 19002D 26037.51026450 .00000061 00000+0 14674-4 0 9998 2 43925 86.3925 48.1761 0002334 87.8885 272.2578 14.34217888370224 IRIDIUM 169 1 43926U 19002E 26037.13961589 .00000317 00000+0 97181-4 0 9996 2 43926 86.4177 79.9959 0002724 76.2419 283.9082 14.38611103371383 IRIDIUM 172 1 43927U 19002F 26037.50392251 .00000084 00000+0 22957-4 0 9992 2 43927 86.3927 48.1863 0002283 94.6514 265.4943 14.34218024370233 IRIDIUM 175 1 43928U 19002G 26037.31652373 .00002778 00000+0 43665-3 0 9996 2 43928 86.1544 347.5362 0001358 74.9795 285.1572 14.72240262379980 IRIDIUM 171 1 43929U 19002H 26037.41512446 .00000174 00000+0 55223-4 0 9996 2 43929 86.3937 48.5156 0002028 86.9732 273.1696 14.34217986370213 IRIDIUM 170 1 43930U 19002J 26037.46329582 .00000546 00000+0 82674-4 0 9993 2 43930 86.6050 48.1935 0002378 93.1805 266.9684 14.72249597380026 IRIDIUM 167 1 43931U 19002K 26037.47853717 .00000186 00000+0 59340-4 0 9991 2 43931 86.3927 48.2182 0002049 81.3004 278.8424 14.34219635370220 IRIDIUM 181 1 56726U 23068S 26037.21256368 .00000613 00000+0 17606-3 0 9998 2 56726 86.4505 111.5618 0002103 106.2085 253.9347 14.43310131143548 IRIDIUM 177 1 56727U 23068T 26037.51347557 .00000871 00000+0 11109-3 0 9991 2 56727 86.1951 30.8260 0002398 89.1349 271.0147 14.80226858147035 IRIDIUM 174 1 56728U 23068U 26037.51888631 .00000587 00000+0 89120-4 0 9998 2 56728 86.6058 48.3044 0002539 92.2142 267.9365 14.72249593146796 IRIDIUM 178 1 56729U 23068V 26037.09698324 .00001529 00000+0 19781-3 0 9992 2 56729 86.6495 80.1611 0001941 83.7990 276.3452 14.80240659146972 IRIDIUM 179 1 56730U 23068W 26037.09159447 .00001524 00000+0 19715-3 0 9994 2 56730 86.6741 88.7589 0002271 91.6749 268.4733 14.80244475146977